Volver al catálogo

SL-14 DEB

ActivoPO
NORAD 39973·DEBRIS·🇷🇺 Russia

Lanzado Aug 18, 1987 desde Plesetsk Cosmodrome

Loading…

Próximos Pases (próximas 24 horas)

TLE

ActualizadoSource: Space-Track

Época: Sep 11, 2026, 13:46 UTC

1 39973U 87068CZ  26254.57381140  .00003350  00000-0  74922-3 0  9996
2 39973  83.0273 200.0238 0014610 260.7885  99.1664 14.56438374643147

Sigue SL-14 DEB en tiempo real con AllMySat

Download on the App Store